Weather History for Coeur d'Alene, ID

Change the Weather History Date:

Sunday, March 31, 2013

  Actual Average Record
Temperature  
Mean Temperature 49 °F -  
Max Temperature 68 °F 48 °F 68 °F (2013)
Min Temperature 30 °F 30 °F 24 °F (1999)
Degree Days  
Heating Degree Days 16    
Moisture  
Dew Point 34 °F    
Average Humidity 61    
Maximum Humidity 93    
Minimum Humidity 26    
Precipitation  
Precipitation 0.00 in - - ()
Sea Level Pressure  
Sea Level Pressure 30.04 in    
Wind  
Wind Speed 6 mph (ENE)    
Max Wind Speed 13 mph    
Max Gust Speed -    
Visibility 10 miles    
Events      
Averages and records for this station are not official NWS values.
T = Trace of Precipitation, MM = Missing Value Source: NWS Daily Summary

Daily Weather History Graph

Daily Weather History Graph

Search for Another Location

Airport:

Trip Planner

Search our weather history database for the weather conditions in past years. The results will help you decide how hot, cold, wet, or windy it might be!

Date:

Astronomy

Mar. 31, 2013 Rise Set
Actual Time 6:27 AM PDT 7:16 PM PDT
Civil Twilight 5:55 AM PDT 7:47 PM PDT
Nautical Twilight 5:18 AM PDT 8:25 PM PDT
Astronomical Twilight 4:39 AM PDT 9:04 PM PDT
Moon No Moon Rise 9:00 AM PDT (3/31)
Length of Visible Light 13h 51m
Length of Day
12h 49m
Waning Gibbous, 76% of the Moon is Illuminated
Mar 31
Waning Gibbous
Apr 2
Last Quarter
Apr 10
New
Apr 18
First Quarter
Apr 25
Full

Hourly Weather History & Observations

Time (PDT) Temp. Windchill Dew Point Humidity Pressure Visibility Wind Dir Wind Speed Gust Speed Precip Events Conditions
12:15 AM 42.8 °F 38.6 °F 33.8 °F 70% 30.13 in 10.0 mi SE 6.9 mph - N/A   Clear
12:35 AM 42.8 °F 38.6 °F 33.8 °F 70% 30.13 in 10.0 mi SSE 6.9 mph - N/A   Clear
12:55 AM 41.0 °F 36.4 °F 33.8 °F 76% 30.13 in 10.0 mi SE 6.9 mph - N/A   Clear
1:15 AM 39.2 °F 34.2 °F 33.8 °F 81% 30.13 in 10.0 mi SE 6.9 mph - N/A   Clear
1:35 AM 41.0 °F 36.4 °F 33.8 °F 76% 30.12 in 10.0 mi SE 6.9 mph - N/A   Clear
1:55 AM 35.6 °F 30.7 °F 28.4 °F 75% 30.12 in 10.0 mi ENE 5.8 mph - N/A   Clear
2:15 AM 33.8 °F 27.7 °F 26.6 °F 75% 30.12 in 10.0 mi ENE 6.9 mph - N/A   Clear
2:35 AM 33.8 °F 27.7 °F 30.2 °F 87% 30.11 in 10.0 mi ENE 6.9 mph - N/A   Clear
2:55 AM 35.6 °F 31.7 °F 30.2 °F 81% 30.11 in 10.0 mi ENE 4.6 mph - N/A   Clear
3:15 AM 33.8 °F 29.6 °F 28.4 °F 81% 30.11 in 10.0 mi ENE 4.6 mph - N/A   Clear
3:35 AM 35.6 °F 30.7 °F 32.0 °F 87% 30.11 in 2.5 mi ENE 5.8 mph - N/A   Clear
3:55 AM 33.8 °F 28.6 °F 28.4 °F 81% 30.10 in 6.0 mi ENE 5.8 mph - N/A   Clear
4:15 AM 33.8 °F 27.0 °F 28.4 °F 81% 30.10 in 10.0 mi ENE 8.1 mph - N/A   Clear
4:35 AM 32.0 °F 25.6 °F 28.4 °F 87% 30.10 in 10.0 mi ENE 6.9 mph - N/A   Clear
4:55 AM 32.0 °F 25.6 °F 26.6 °F 80% 30.10 in 10.0 mi ENE 6.9 mph - N/A   Clear
5:15 AM 30.2 °F 22.6 °F 26.6 °F 86% 30.10 in 10.0 mi ENE 8.1 mph - N/A   Clear
5:35 AM 30.2 °F 22.6 °F 26.6 °F 86% 30.10 in 10.0 mi ENE 8.1 mph - N/A   Clear
5:55 AM 30.2 °F 24.3 °F 26.6 °F 86% 30.11 in 10.0 mi ENE 5.8 mph - N/A   Clear
6:15 AM 30.2 °F 26.7 °F 24.8 °F 80% 30.10 in 10.0 mi East 3.5 mph - N/A   Clear
6:35 AM 32.0 °F 27.5 °F 28.4 °F 87% 30.11 in 10.0 mi East 4.6 mph - N/A   Clear
6:55 AM 32.0 °F 28.7 °F 26.6 °F 80% 30.11 in 10.0 mi ENE 3.5 mph - N/A   Clear
7:15 AM 33.8 °F 29.6 °F 32.0 °F 93% 30.11 in 10.0 mi ENE 4.6 mph - N/A   Clear
7:35 AM 35.6 °F 31.7 °F 30.2 °F 81% 30.11 in 10.0 mi East 4.6 mph - N/A   Clear
7:55 AM 39.2 °F 33.0 °F 35.6 °F 87% 30.11 in 10.0 mi NE 9.2 mph - N/A   Clear
8:15 AM 39.2 °F 33.0 °F 33.8 °F 81% 30.11 in 10.0 mi NE 9.2 mph - N/A   Clear
8:35 AM 41.0 °F 35.8 °F 35.6 °F 81% 30.11 in 10.0 mi NE 8.1 mph - N/A   Clear
8:55 AM 42.8 °F 37.5 °F 37.4 °F 81% 30.11 in 10.0 mi ENE 9.2 mph - N/A   Clear
9:15 AM 44.6 °F 39.7 °F 37.4 °F 76% 30.10 in 10.0 mi ENE 9.2 mph - N/A   Clear
9:35 AM 48.2 °F - 39.2 °F 71% 30.10 in 10.0 mi NE 10.4 mph - N/A   Clear
9:55 AM 50.0 °F - 37.4 °F 62% 30.10 in 10.0 mi ENE 12.7 mph - N/A   Clear
10:15 AM 51.8 °F - 37.4 °F 58% 30.09 in 10.0 mi NE 9.2 mph - N/A   Clear
10:35 AM 53.6 °F - 39.2 °F 58% 30.09 in 10.0 mi ENE 6.9 mph - N/A   Clear
10:55 AM 55.4 °F - 39.2 °F 54% 30.09 in 10.0 mi NE 5.8 mph - N/A   Clear
11:15 AM 55.4 °F - 39.2 °F 54% 30.08 in 10.0 mi Calm Calm - N/A   Clear
11:35 AM 57.2 °F - 41.0 °F 55% 30.08 in 10.0 mi Calm Calm - N/A   Clear
11:55 AM 59.0 °F - 41.0 °F 51% 30.07 in 10.0 mi Calm Calm - N/A   Clear
12:15 PM 60.8 °F - 41.0 °F 48% 30.06 in 10.0 mi Calm Calm - N/A   Clear
12:35 PM 60.8 °F - 39.2 °F 45% 30.06 in 10.0 mi ENE 4.6 mph - N/A   Clear
12:55 PM 62.6 °F - 37.4 °F 39% 30.05 in 10.0 mi East 3.5 mph - N/A   Clear
1:15 PM 62.6 °F - 35.6 °F 37% 30.04 in 10.0 mi NW 3.5 mph - N/A   Clear
1:35 PM 64.4 °F - 33.8 °F 32% 30.03 in 10.0 mi East 4.6 mph - N/A   Clear
1:55 PM 66.2 °F - 35.6 °F 32% 30.03 in 10.0 mi ESE 4.6 mph - N/A   Clear
2:15 PM 64.4 °F - 33.8 °F 32% 30.02 in 10.0 mi NNE 3.5 mph - N/A   Clear
2:35 PM 66.2 °F - 37.4 °F 35% 30.01 in 10.0 mi SE 5.8 mph - N/A   Clear
2:55 PM 66.2 °F - 33.8 °F 30% 30.00 in 10.0 mi North 4.6 mph - N/A   Clear
3:15 PM 66.2 °F - 33.8 °F 30% 29.99 in 10.0 mi ENE 3.5 mph - N/A   Clear
3:35 PM 66.2 °F - 32.0 °F 28% 29.99 in 10.0 mi ENE 4.6 mph - N/A   Clear
3:55 PM 68.0 °F - 33.8 °F 28% 29.98 in 10.0 mi ENE 3.5 mph - N/A   Clear
4:15 PM 68.0 °F - 32.0 °F 26% 29.97 in 10.0 mi NNE 8.1 mph - N/A   Clear
4:35 PM 68.0 °F - 33.8 °F 28% 29.97 in 10.0 mi NE 5.8 mph - N/A   Clear
5:15 PM 66.2 °F - 32.0 °F 28% 29.95 in 10.0 mi NNE 8.1 mph - N/A   Clear
5:35 PM 66.2 °F - 33.8 °F 30% 29.95 in 10.0 mi NE 5.8 mph - N/A   Clear
6:15 PM 64.4 °F - 33.8 °F 32% 29.94 in 10.0 mi NNE 8.1 mph - N/A   Clear
6:35 PM 64.4 °F - 33.8 °F 32% 29.94 in 10.0 mi NNE 5.8 mph - N/A   Clear
6:55 PM 60.8 °F - 35.6 °F 39% 29.94 in 10.0 mi NE 5.8 mph - N/A   Clear
7:15 PM 59.0 °F - 35.6 °F 42% 29.93 in 10.0 mi NE 5.8 mph - N/A   Clear
7:35 PM 57.2 °F - 35.6 °F 44% 29.93 in 10.0 mi NE 3.5 mph - N/A   Clear
8:15 PM 51.8 °F - 35.6 °F 54% 29.93 in 10.0 mi NNE 6.9 mph - N/A   Clear
8:35 PM 51.8 °F - 35.6 °F 54% 29.94 in 10.0 mi ENE 8.1 mph - N/A   Clear
8:55 PM 48.2 °F - 33.8 °F 58% 29.93 in 10.0 mi NE 9.2 mph - N/A   Clear
9:15 PM 48.2 °F - 35.6 °F 62% 29.94 in 10.0 mi East 5.8 mph - N/A   Clear
9:35 PM 46.4 °F 43.5 °F 35.6 °F 66% 29.93 in 10.0 mi East 5.8 mph - N/A   Clear
10:15 PM 44.6 °F 41.4 °F 37.4 °F 76% 29.93 in 10.0 mi East 5.8 mph - N/A   Clear
10:35 PM 44.6 °F 41.4 °F 35.6 °F 71% 29.94 in 10.0 mi East 5.8 mph - N/A   Clear
10:55 PM 44.6 °F 41.4 °F 35.6 °F 71% 29.94 in 10.0 mi East 5.8 mph - N/A   Clear
11:15 PM 44.6 °F 40.2 °F 33.8 °F 66% 29.94 in 10.0 mi ENE 8.1 mph - N/A   Clear
11:35 PM 44.6 °F 39.7 °F 33.8 °F 66% 29.94 in 10.0 mi East 9.2 mph - N/A   Clear
11:55 PM 44.6 °F 39.7 °F 33.8 °F 66% 29.94 in 10.0 mi ENE 9.2 mph - N/A   Clear